Regional Weather Roundup
Issued by NWS Goodland, KS

Home | Current Version | Previous Version | Graphics & Text | Print | Product List | Glossary On
Versions: 1 2 3 4 5 6 7 8 9 10 11 12 13 14 15 16 17 18 19 20 21 22 23 24 25 26 27 28 29 30 31 32 33 34 35 36 37 38 39 40 41 42 43 44 45 46 47 48 49 50
000
ASUS43 KGLD 260459
RWRGLD

GOODLAND FORECAST AREA HOURLY WEATHER ROUNDUP
NATIONAL WEATHER SERVICE GOODLAND KS
1000 PM MST THU DEC 25 2014

...OFFICIAL OBSERVATIONS...

CITY           SKY/WX    TMP DP  RH WIND       PRES   REMARKS
GOODLAND KS    CLOUDY    29  26  89 N15       29.78R WCI  18
HILL CITY KS   MOCLDY    31  26  82 N22G29    29.77R WCI  18
IMPERIAL NEB   CLOUDY    28  24  85 N20       29.83R WCI  15
MCCOOK NEB     CLOUDY    31  26  82 N21       29.79R WCI  18
AKRON CO       FLURRIES  22  20  92 N21       29.84R WCI   6
BURLINGTON CO  CLOUDY    27  23  85 N20       29.77R WCI  13
LIMON CO       CLOUDY    23  21  92 N23       29.77R WCI   7
$$

...UNOFFICIAL OBSERVATIONS...

CITY           SKY/WX    TMP DP  RH WIND       PRES   REMARKS
COLBY KS       CLOUDY    30  30 100 NW13G20   29.78R
NORTON KS      CLOUDY    30  25  80 N17G23    29.76R WCI  18
SHARON SPRINGS   N/A     30  26  86 N15G26      N/A  WCI  19
TRIBUNE KS     CLOUDY    32  30  93 N17       29.77R
KIT CARSON CO    N/A     27  24  88 MISG        N/A
YUMA CO          N/A     25  22  88 N18         N/A  WCI  12
$$



USA.gov is the U.S. government's official web portal to all federal, state and local government web resources and services.